Address 0x4e8efa766f63906b008a11e3bf4afa6e96892c5e 6

 
Txn Hash Method
Block
From
To
Value [Txn Fee]
0x3eb627a868d41f841ad1e9dcbad53de46179b7af1dfc06a5edb5db65e9953d3eTransfer429501712022-12-02 10:14:0363 days 42 mins ago0x4e8efa766f63906b008a11e3bf4afa6e96892c5eOUT 0xff970a61a04b1ca14834a43f5de4533ebddb5cc80 ETH0.00001879
0xf39fd55673ed3cd2ea3c5eafd7a7e1c349ac1834a9d7d9000a73f15b913c3cf1Transfer376869012022-11-13 6:52:3282 days 4 hrs ago0x4e8efa766f63906b008a11e3bf4afa6e96892c5eOUT 0xff970a61a04b1ca14834a43f5de4533ebddb5cc80 ETH0.00002253
0x18df1ac9b7b0078395e3c3ba7b69e0dab578883ff06983cd9ccad6af549f204cTransfer376868332022-11-13 6:52:0882 days 4 hrs ago0x4e8efa766f63906b008a11e3bf4afa6e96892c5eOUT 0xff970a61a04b1ca14834a43f5de4533ebddb5cc80 ETH0.00002253
0xb8359d696b285826483d91149e8ffb360def24cc7f446645d5534b4c75654867Multicall376865832022-11-13 6:50:5082 days 4 hrs ago0x4e8efa766f63906b008a11e3bf4afa6e96892c5eOUT Uniswap V3: Router 215 ETH0.00005319
0x13078effc98a09dec57df4e6520028bd8eb25fbc1a3ae0f2942ab2ec40bbcd2bRedeem USDL To U...376864242022-11-13 6:50:0282 days 4 hrs ago0x4e8efa766f63906b008a11e3bf4afa6e96892c5eOUT 0xebacd923ddf988140898469048a9c1d8b8ccb3c30 ETH0.00021881
0xa66484720a31612ab7d9809d4c22a38c74d6b884dc4370112dbf2c7175b98147Redeem USDLETH226654252022-09-03 15:27:01152 days 19 hrs ago0x4e8efa766f63906b008a11e3bf4afa6e96892c5eOUT 0xebacd923ddf988140898469048a9c1d8b8ccb3c30 ETH0.00201825
0xab2660825e4cbec361415bef1cd04c0d22bd1ce7f5450e43e4ae0444af44c346Redeem USDLETH226651512022-09-03 15:24:47152 days 19 hrs ago0x4e8efa766f63906b008a11e3bf4afa6e96892c5eOUT 0xebacd923ddf988140898469048a9c1d8b8ccb3c30 ETH0.00202498
0x5e9bbb4c790652c82095e93abfc13fb33c97a368aa030f6d74b8e3be8bca28dcApprove226641042022-09-03 15:16:35152 days 19 hrs ago0x4e8efa766f63906b008a11e3bf4afa6e96892c5eOUT Lemma Finance: USD Lemma0 ETH0.00020136
0xb662091301190c273d5530aa422bad7f84fb4db8c50db4e91f87c905c3df21b9Unstake USDL226640252022-09-03 15:15:53152 days 19 hrs ago0x4e8efa766f63906b008a11e3bf4afa6e96892c5eOUT 0xebacd923ddf988140898469048a9c1d8b8ccb3c30 ETH0.00029824
0x3ab3523867e9ab5c47d348d304195d37a9d05d03c9872211ae36838c29760b2bApprove226639962022-09-03 15:15:38152 days 19 hrs ago0x4e8efa766f63906b008a11e3bf4afa6e96892c5eOUT Lemma Finance: xUSDL0 ETH0.00020192
0x68fadddf1bf5feabe5c46835b1f6758a9356b692f13359cbe155134761afad2bTransfer37767182021-12-12 7:19:47418 days 3 hrs ago0x4e8efa766f63906b008a11e3bf4afa6e96892c5eOUT 0xff970a61a04b1ca14834a43f5de4533ebddb5cc80 ETH0.000622669969 ETH
0xc7cc58ec5449b4004dd6ec85470913e026fee7a394e30f49faa7549419d369a9Unstake And Rede...37767102021-12-12 7:18:53418 days 3 hrs ago0x4e8efa766f63906b008a11e3bf4afa6e96892c5eOUT Lemma Finance: Lemma Router0 ETH0.00146321419 ETH
0x9cc318628be73b6f4fab576a4afea4a885e1eb90884c3c74bcaa4ef9dd10ea84Approve37767052021-12-12 7:18:53418 days 3 hrs ago0x4e8efa766f63906b008a11e3bf4afa6e96892c5eOUT Lemma Finance: xUSDL0 ETH0.000645772889 ETH
0x3559040f03a1391fb83d57c6973310bf771980234d0a65c61318055f005eba00Multicall35103472021-12-02 10:20:17428 days 36 mins ago0x4e8efa766f63906b008a11e3bf4afa6e96892c5eOUT Uniswap V3: Router0 ETH0.001197883903 ETH
0x038911d9e53319bcceae79b7c3eed652ec8d380e784861bf2371cd5d38afb745Approve35103322021-12-02 10:20:17428 days 36 mins ago0x4e8efa766f63906b008a11e3bf4afa6e96892c5eOUT 0xff970a61a04b1ca14834a43f5de4533ebddb5cc80 ETH0.00106070578 ETH
0xf09430e12d2f0c669e0fef99acad82c24db73c35dad4c767fe66410ffe682ff5Mint Using Token...35102622021-12-02 10:16:35428 days 40 mins ago0x4e8efa766f63906b008a11e3bf4afa6e96892c5eOUT Lemma Finance: Lemma Router0 ETH0.002694020041 ETH
0x1376ee505d5366c802ab560792362bc52d149f12b6caf17dabce15b1915abe96Approve35102542021-12-02 10:16:35428 days 40 mins ago0x4e8efa766f63906b008a11e3bf4afa6e96892c5eOUT 0xff970a61a04b1ca14834a43f5de4533ebddb5cc80 ETH0.001057633597 ETH
0x9c13f5c61eadd26b87762171295b6a856c16f08a812e435131c1f3b90514a7e6Transfer35100402021-12-02 10:07:35428 days 49 mins ago0x4a016bfe6dc98a38de8cf5a5dc61a31529402e99 IN 0x4e8efa766f63906b008a11e3bf4afa6e96892c5e0.014564860551174 ETH0.000739634077 ETH
0x39c6c96a8df8e7149495f58cff8e3804cbb239cd16fb925e9181bb8406e71771Transfer35097752021-12-02 9:50:41428 days 1 hr ago0x4e8efa766f63906b008a11e3bf4afa6e96892c5eOUT0x4a016bfe6dc98a38de8cf5a5dc61a31529402e990.016599402849021 ETH0.000744325202 ETH
0xee7b563560e9e630e562cc7cb6a89550dccc5a17634074c696ceb1b5f282be4cTransfer35094212021-12-02 9:35:33428 days 1 hr ago0xb0ddf2333994fa9549c07b839fb16fa51046d9e0 IN 0x4e8efa766f63906b008a11e3bf4afa6e96892c5e0.018301361210567 ETH0.000741197786 ETH
[ Download CSV Export 
Latest 10 internal transactions
Parent Txn Hash Block From To Value
0xa66484720a31612ab7d9809d4c22a38c74d6b884dc4370112dbf2c7175b98147226654252022-09-03 15:27:01152 days 19 hrs ago 0xebacd923ddf988140898469048a9c1d8b8ccb3c30x4e8efa766f63906b008a11e3bf4afa6e96892c5e5.067229732179968608 ETH
0xab2660825e4cbec361415bef1cd04c0d22bd1ce7f5450e43e4ae0444af44c346226651512022-09-03 15:24:47152 days 19 hrs ago 0xebacd923ddf988140898469048a9c1d8b8ccb3c30x4e8efa766f63906b008a11e3bf4afa6e96892c5e6.339350512696708368 ETH
0xc7e30ddebae64825d0740e54fd5e893c4aa7d38087c7160bdc7a9bdda36e39c2160881652022-06-27 15:22:07220 days 19 hrs ago Hop Protocol: ETH Wrapper0x4e8efa766f63906b008a11e3bf4afa6e96892c5e4.295947144851110594 ETH
0x68fadddf1bf5feabe5c46835b1f6758a9356b692f13359cbe155134761afad2b37767182021-12-12 7:19:47418 days 3 hrs ago 0x4e8efa766f63906b008a11e3bf4afa6e96892c5e 0x1efb3f88bc88f03fd1804a5c53b7141bbef5ded80 ETH
0x9cc318628be73b6f4fab576a4afea4a885e1eb90884c3c74bcaa4ef9dd10ea8437767052021-12-12 7:18:53418 days 3 hrs ago 0x4e8efa766f63906b008a11e3bf4afa6e96892c5e 0x566ea349158b610d1800cb9ec3072931140cbf030 ETH
0x3559040f03a1391fb83d57c6973310bf771980234d0a65c61318055f005eba0035103472021-12-02 10:20:17428 days 36 mins ago Uniswap V3: Router0x4e8efa766f63906b008a11e3bf4afa6e96892c5e0.047960515685881241 ETH
0x3559040f03a1391fb83d57c6973310bf771980234d0a65c61318055f005eba0035103472021-12-02 10:20:17428 days 36 mins ago 0x4e8efa766f63906b008a11e3bf4afa6e96892c5e Uniswap V3: Router0 ETH
0x3559040f03a1391fb83d57c6973310bf771980234d0a65c61318055f005eba0035103472021-12-02 10:20:17428 days 36 mins ago 0x4e8efa766f63906b008a11e3bf4afa6e96892c5e Uniswap V3: Router0 ETH
0x038911d9e53319bcceae79b7c3eed652ec8d380e784861bf2371cd5d38afb74535103322021-12-02 10:20:17428 days 36 mins ago 0x4e8efa766f63906b008a11e3bf4afa6e96892c5e 0x1efb3f88bc88f03fd1804a5c53b7141bbef5ded80 ETH
0x1376ee505d5366c802ab560792362bc52d149f12b6caf17dabce15b1915abe9635102542021-12-02 10:16:35428 days 40 mins ago 0x4e8efa766f63906b008a11e3bf4afa6e96892c5e 0x1efb3f88bc88f03fd1804a5c53b7141bbef5ded80 ETH
[ Download CSV Export 
Loading

Contract Name:
0 ETH

Compiler Version
0

Optimization Enabled:
0 ETH

Other Settings:
-NA-
Block Transaction Gas Used Reward
Age Block Fee Address BC Fee Address Voting Power Jailed Incoming
Block Uncle Number Difficulty Gas Used Reward
Loading
Make sure to use the "Vote Down" button for any spammy posts, and the "Vote Up" for interesting conversations.